Location: Unspecified
(33.9239°N, 118.0544°W)
Time: 14:51:47
(UTC-07:00)

Resurs 1-4 Rocket - Visible Passes

Search period start: 28 April 2016 00:00
Search period end: 08 May 2016 00:00
Orbit: 799 x 815 km, 98.4° (Epoch: 27 April)

Date Brightness Start Highest point End Pass type
(mag) Time Alt. Az. Time Alt. Az. Time Alt. Az.
28 Apr 2.0 03:49:34 10° NNE 03:54:52 86° WNW 03:55:44 64° SSW visible
29 Apr 2.5 03:25:10 10° NNE 03:30:20 54° E 03:31:00 50° SE visible
29 Apr 3.8 05:06:32 10° NNW 05:09:41 16° WNW 05:12:05 12° W visible
30 Apr 3.5 03:01:06 10° NE 03:05:43 30° E 03:06:15 30° ESE visible
30 Apr 3.2 04:41:01 10° NNW 04:45:24 27° WNW 04:47:20 22° WSW visible
01 May 4.2 02:37:36 10° NE 02:41:02 17° E 02:41:30 17° E visible
01 May 2.4 04:16:00 10° N 04:21:02 47° WNW 04:22:35 36° WSW visible
02 May 2.0 03:51:18 10° N 03:56:35 82° WNW 03:57:50 54° SSW visible
03 May 2.5 03:26:52 10° NNE 03:32:04 57° E 03:33:05 48° SE visible
03 May 3.8 05:08:24 10° NNW 05:11:23 15° WNW 05:14:11 11° W visible
04 May 3.4 03:02:45 10° NE 03:07:27 32° E 03:08:20 30° ESE visible
04 May 3.2 04:42:48 10° NNW 04:47:07 26° WNW 04:49:25 19° WSW visible
05 May 4.2 02:39:11 10° NE 02:42:46 18° E 02:43:34 18° ESE visible
05 May 2.5 04:17:45 10° N 04:22:45 45° WNW 04:24:40 32° WSW visible
06 May 2.0 03:53:01 10° N 03:58:19 79° WNW 03:59:54 47° SSW visible
07 May 2.4 03:28:34 10° NNE 03:33:48 60° E 03:35:09 45° SSE visible
07 May 3.9 05:10:15 10° NNW 05:13:05 15° WNW 05:15:55 10° W visible
